EW4543 Weather Reports


Display with metric or nautical units.
time (UTC)temp
F
wind
direction
speed
MPH
gust
MPH
rain 1hr
in
rain 24hr
in
rain mn
in
humidity
%
barometer
mb
20260906221606 79 213 1.0 5.0 0.00 0.02 0.02 34 1009.9
20260906220056 78 214 2.0 7.0 0.00 0.02 0.02 33 1009.9
20260906214554 78 243 1.0 4.0 0.01 0.02 0.02 34 1010.0
20260906213053 78 276 2.0 6.0 0.01 0.02 0.02 33 1009.9
20260906211552 78 221 1.0 7.0 0.01 0.02 0.02 33 1009.8
20260906210108 79 319 3.0 7.0 0.01 0.02 0.02 32 1010.0
20260906204550 78 227 1.0 7.0 0.00 0.01 0.01 34 1010.0
20260906203049 77 311 1.0 6.0 0.00 0.01 0.01 33 1009.9
20260906201620 77 288 1.0 7.0 0.01 0.01 0.01 35 1010.0
20260906200148 78 245 1.0 4.0 0.01 0.01 0.01 35 1010.2
20260906194548 78 301 1.0 6.0 0.01 0.01 0.01 34 1010.3
20260906193043 76 269 1.0 4.0 0.01 0.01 0.01 37 1010.4
20260906191558 76 244 0.0 6.0 0.00 0.00 0.00 36 1010.3
20260906190042 76 221 1.0 5.0 0.00 0.00 0.00 35 1010.5
20260906184546 75 304 2.0 7.0 0.00 0.00 0.00 34 1010.4
20260906183043 76 240 1.0 4.0 0.00 0.00 0.00 37 1010.4
20260906181553 75 187 2.0 4.0 0.00 0.00 0.00 38 1010.6
20260906180033 72 90 1.0 4.0 0.00 0.00 0.00 41 1010.7
20260906174531 71 149 0.0 3.0 0.00 0.00 0.00 40 1010.8
20260906173031 71 286 0.0 3.0 0.00 0.00 0.00 40 1010.6
20260906171535 72 226 0.0 3.0 0.00 0.00 0.00 41 1010.7
20260906170027 71 158 0.0 1.0 0.00 0.00 0.00 43 1010.7
20260906164525 70 198 0.0 1.0 0.00 0.00 0.00 45 1010.7
20260906163025 68 15 0.0 2.0 0.00 0.00 0.00 48 1010.6
20260906161517 64 140 0.0 2.0 0.00 0.00 0.00 54 1010.6
20260906160012 60 204 0.0 0.0 0.00 0.00 0.00 66 1010.8
20260906154508 57 204 0.0 0.0 0.00 0.00 0.00 78 1010.8
20260906153004 55 205 0.0 0.0 0.00 0.00 0.00 82 1010.9
20260906151502 52 206 0.0 0.0 0.00 0.00 0.00 85 1010.9
20260906150003 51 206 0.0 0.0 0.00 0.00 0.00 87 1010.9
20260906144600 49 206 0.0 0.0 0.00 0.00 0.00 87 1010.9
20260906143058 49 206 0.0 0.0 0.00 0.00 0.00 86 1010.8
20260906141559 49 206 0.0 0.0 0.00 0.00 0.00 86 1010.6
20260906140106 49 206 0.0 0.0 0.00 0.00 0.00 86 1010.5
20260906134605 49 206 0.0 0.0 0.00 0.00 0.00 86 1010.3
20260906133040 49 206 0.0 0.0 0.00 0.00 0.00 86 1010.3
20260906131514 49 206 0.0 0.0 0.00 0.00 0.00 86 1010.2
20260906130012 49 206 0.0 0.0 0.00 0.00 0.00 85 1010.2
20260906124511 49 206 0.0 0.0 0.00 0.00 0.00 85 1010.1
20260906123014 49 206 0.0 0.0 0.00 0.00 0.00 85 1010.0
20260906121509 49 206 0.0 0.0 0.00 0.00 0.00 85 1010.0
20260906120007 49 206 0.0 0.0 0.00 0.00 0.00 84 1009.9
20260906114520 49 206 0.0 0.0 0.00 0.00 0.00 84 1009.8
20260906113006 49 206 0.0 0.0 0.00 0.00 0.00 83 1009.9
20260906111503 49 206 0.0 0.0 0.00 0.00 0.00 83 1009.9
20260906110003 49 206 0.0 0.0 0.00 0.00 0.00 82 1009.8
20260906104559 49 206 0.0 0.0 0.00 0.00 0.00 82 1009.8
20260906103059 49 206 0.0 0.0 0.00 0.00 0.00 82 1009.9
20260906101602 50 206 0.0 0.0 0.00 0.00 0.00 81 1010.0
20260906100054 50 206 0.0 0.0 0.00 0.00 0.00 81 1010.1
20260906094554 50 206 0.0 0.0 0.00 0.00 0.00 80 1010.2
20260906093050 50 206 0.0 0.0 0.00 0.00 0.00 79 1010.2
20260906091550 51 206 0.0 0.0 0.00 0.00 0.00 78 1010.3
20260906090046 51 206 0.0 0.0 0.00 0.00 0.00 78 1010.4
20260906084544 52 206 0.0 0.0 0.00 0.00 0.00 77 1010.4
20260906083042 52 206 0.0 0.0 0.00 0.00 0.00 76 1010.5
20260906081542 52 206 0.0 0.0 0.00 0.00 0.00 76 1010.5
20260906080038 52 206 0.0 0.0 0.00 0.00 0.00 75 1010.6
20260906074540 53 206 0.0 0.0 0.00 0.00 0.00 74 1010.6
20260906073041 54 206 0.0 0.0 0.00 0.00 0.00 73 1010.6
20260906071533 54 206 0.0 0.0 0.00 0.00 0.00 72 1010.6
20260906070029 54 206 0.0 0.0 0.00 0.00 0.00 72 1010.6
20260906064530 55 206 0.0 0.0 0.00 0.00 0.00 71 1010.7
20260906063028 55 206 0.0 0.0 0.00 0.00 0.00 71 1010.6
20260906061528 56 206 0.0 0.0 0.00 0.00 0.00 70 1010.6
20260906060033 56 206 0.0 0.0 0.00 0.00 0.00 69 1010.7
20260906054528 57 206 0.0 0.0 0.00 0.00 0.00 67 1010.7
20260906053031 57 206 0.0 0.0 0.00 0.00 0.00 66 1010.7
20260906051526 58 206 0.0 0.0 0.00 0.00 0.00 65 1010.8
20260906050025 59 206 0.0 0.0 0.00 0.00 0.00 63 1010.8
20260906044525 59 206 0.0 0.0 0.00 0.00 0.00 61 1010.8
20260906043027 60 206 0.0 0.0 0.00 0.00 0.00 60 1010.8
20260906041529 61 206 0.0 0.0 0.00 0.00 0.00 58 1010.7
20260906040032 61 206 0.0 0.0 0.00 0.00 0.00 57 1010.5
20260906034529 62 205 0.0 0.0 0.00 0.00 0.00 56 1010.5
20260906033022 63 206 0.0 0.0 0.00 0.00 0.00 54 1010.4
20260906031534 64 206 0.0 0.0 0.00 0.00 0.00 53 1010.2
20260906030053 65 206 0.0 0.0 0.00 0.00 0.00 51 1010.1
20260906024556 66 206 0.0 1.0 0.00 0.00 0.00 50 1009.9
20260906023107 68 206 0.0 0.0 0.00 0.00 0.00 48 1010.0
20260906021554 69 206 0.0 0.0 0.00 0.00 0.00 46 1010.0
20260906020057 70 206 0.0 0.0 0.00 0.00 0.00 43 1010.0
20260906014550 71 204 0.0 2.0 0.00 0.00 0.00 43 1010.1
20260906013050 71 171 0.0 1.0 0.00 0.00 0.00 44 1010.1
20260906011553 71 115 0.0 1.0 0.00 0.00 0.00 42 1010.2
20260906010049 72 245 0.0 2.0 0.00 0.00 0.00 41 1010.1
20260906004555 73 315 2.0 4.0 0.00 0.00 0.00 42 1010.0
20260906003051 73 348 2.0 5.0 0.00 0.00 0.00 42 1010.0
20260906001645 73 323 1.0 4.0 0.00 0.00 0.00 41 1010.0
20260906000047 73 200 0.0 3.0 0.00 0.00 0.00 40 1010.0
20260905234543 74 283 1.0 4.0 0.00 0.00 0.00 37 1010.0
20260905233049 74 269 0.0 3.0 0.00 0.00 0.00 39 1010.1
20260905231540 74 141 0.0 4.0 0.00 0.00 0.00 40 1010.2
20260905230039 74 199 1.0 3.0 0.00 0.00 0.00 39 1010.3
20260905224538 74 212 0.0 4.0 0.00 0.00 0.00 40 1010.4
20260905223037 74 103 0.0 3.0 0.00 0.00 0.00 39 1010.4